Flag for Canada Weather past 2 weeks in Dryden, Ontario, Canada

Now
63 °F

Passing clouds.


Feels Like: 63 °F
Forecast: 57 / 79 °F
Wind: 10 mph from West

Location: Dryden Airport

Current Time: May 23, 2015 at 12:26:37 AM

Latest Report: May 23, 2015 at 12:00 AM


Visibility: 9 mi

Pressure: 30.06 "Hg

Humidity: 42%

Dew point: 39 °F

Location of DrydenLocation

Historic Weather in Dryden — Graph

°F

Dryden temperature yesterday

Maximum temperature yesterday: 72 °F (at 4:00 PM)
Minimum temperature yesterday: 36 °F (at 5:00 AM)
Average temperature yesterday: 57 °F

Past Weeks' High & Low Weather Summary

 TemperatureHumidityPressure
High72 °F (May 22, 4:00 PM)100% (May 8, 2:56 AM)30.48 "Hg (May 8, 2:56 AM)
Low28 °F (May 18, 6:00 AM)21% (May 20, 4:00 PM)29.69 "Hg (May 7, 11:02 PM)
Average44 °F73%30.11 "Hg
* Reported May 7 11:02 PM — May 22 11:00 PM, Dryden, Weather by CustomWeather, © 2015

Note: Actual official high and low records may vary slightly from our data, if they occured in-between our weather recording intervals... More about our weather records

Advertising

Dryden weather history for previous 24 hours

 ConditionsComfort  
Time TempWeatherWind HumidityBarometerVisibility
11:00 PM
Fri, May 22
63 °FPassing clouds.9 mph49%30.05 "Hg9 mi
10:00 PM64 °FLight rain. Mostly cloudy.17 mph43%30.10 "Hg9 mi
9:53 PM64 °FLight rain. Overcast.9 mph46%30.10 "Hg9 mi
9:00 PM66 °FClear.10 mph37%30.04 "Hg9 mi
8:00 PM70 °FSunny.10 mph31%30.05 "Hg9 mi
7:00 PM72 °FSunny.14 mph27%30.07 "Hg9 mi
6:00 PM72 °FSunny.16 mph27%30.09 "Hg9 mi
5:00 PM72 °FSunny.13 mph27%30.10 "Hg9 mi
4:00 PM72 °FSunny.14 mph25%30.11 "Hg9 mi
3:00 PM70 °FSunny.10 mph25%30.12 "Hg9 mi
2:00 PM68 °FSunny.10 mph26%30.13 "Hg9 mi
1:00 PM66 °FSunny.8 mph26%30.15 "Hg9 mi
12:00 PM63 °FSunny.7 mph27%30.17 "Hg9 mi
11:00 AM61 °FSunny.6 mph29%30.18 "Hg9 mi
10:00 AM59 °FSunny.7 mph31%30.19 "Hg9 mi
9:00 AM54 °FSunny.7 mph38%30.20 "Hg9 mi
8:00 AM48 °FSunny.6 mph54%30.21 "Hg9 mi
7:00 AM43 °FSunny.No wind81%30.20 "Hg9 mi
6:00 AM36 °FSunny.3 mph93%30.20 "Hg9 mi
5:00 AM36 °FClear.No wind87%30.19 "Hg9 mi
4:00 AM37 °FClear.2 mph87%30.17 "Hg9 mi
3:00 AM39 °FClear.No wind75%30.16 "Hg9 mi
2:00 AM43 °FClear.2 mph71%30.15 "Hg9 mi
1:00 AM41 °FClear.2 mph70%30.15 "Hg9 mi
12:00 AM45 °FClear.2 mph66%30.14 "Hg9 mi
Weather by CustomWeather, © 2015

See weather overviewHow to use our weather pages